TimePST,TemperatureF,Dew PointF,Humidity,Sea Level PressureIn,VisibilityMPH,Wind Direction,Wind SpeedMPH,Gust SpeedMPH,PrecipitationIn,Events,Conditions,WindDirDegrees,DateUTC
12:04 AM,28.4,28.4,100,30.40,2.0,NE,4.6,-,N/A,,Overcast,40,2013-01-13 08:04:00
12:21 AM,28.4,28.4,100,30.41,1.2,Calm,Calm,-,N/A,,Overcast,0,2013-01-13 08:21:00
12:56 AM,28.0,28.0,100,30.42,1.2,North,4.6,-,N/A,,Overcast,10,2013-01-13 08:56:00
1:02 AM,28.4,28.4,100,30.41,2.0,North,3.5,-,N/A,,Overcast,360,2013-01-13 09:02:00
1:21 AM,28.4,28.4,100,30.40,1.8,Calm,Calm,-,N/A,,Overcast,0,2013-01-13 09:21:00
1:48 AM,28.4,28.4,100,30.42,2.0,Calm,Calm,-,N/A,,Overcast,0,2013-01-13 09:48:00
2:13 AM,28.4,28.4,100,30.42,1.8,North,4.6,-,N/A,,Overcast,350,2013-01-13 10:13:00
2:24 AM,28.4,26.6,93,30.42,2.5,North,4.6,-,N/A,,Overcast,10,2013-01-13 10:24:00
2:32 AM,28.4,26.6,93,30.42,3.0,NNE,4.6,-,N/A,,Overcast,30,2013-01-13 10:32:00
2:52 AM,26.6,26.6,100,30.42,1.8,Calm,Calm,-,N/A,,Overcast,0,2013-01-13 10:52:00
2:53 AM,27.0,27.0,100,30.43,1.8,Calm,Calm,-,N/A,,Overcast,0,2013-01-13 10:53:00
3:43 AM,26.6,26.6,100,30.42,1.0,Calm,Calm,-,N/A,,Overcast,0,2013-01-13 11:43:00
3:52 AM,26.6,26.6,100,30.42,0.8,Calm,Calm,-,N/A,,Mist,0,2013-01-13 11:52:00
3:56 AM,27.0,27.0,100,30.43,0.8,Calm,Calm,-,N/A,,Mist,0,2013-01-13 11:56:00
4:18 AM,26.6,26.6,100,30.42,1.0,Calm,Calm,-,N/A,,Mist,0,2013-01-13 12:18:00
4:33 AM,26.6,26.6,100,30.41,0.8,NNW,4.6,-,0.00,,Mist,330,2013-01-13 12:33:00
4:49 AM,26.6,26.6,100,30.42,1.2,Calm,Calm,-,0.00,,Overcast,0,2013-01-13 12:49:00
4:56 AM,27.0,27.0,100,30.43,1.8,NNW,3.5,-,0.00,,Overcast,330,2013-01-13 12:56:00
5:56 AM,27.0,26.1,96,30.44,2.0,NE,5.8,-,N/A,,Overcast,50,2013-01-13 13:56:00
6:17 AM,26.6,26.6,100,30.43,3.0,Calm,Calm,-,N/A,,Overcast,0,2013-01-13 14:17:00
6:38 AM,26.6,26.6,100,30.43,2.0,Calm,Calm,-,N/A,,Overcast,0,2013-01-13 14:38:00
7:56 AM,27.0,27.0,100,30.47,2.0,Calm,Calm,-,N/A,,Overcast,0,2013-01-13 15:56:00
8:56 AM,27.0,27.0,100,30.48,2.0,Calm,Calm,-,N/A,,Overcast,0,2013-01-13 16:56:00
9:56 AM,28.0,27.0,96,30.48,2.0,Calm,Calm,-,N/A,,Overcast,0,2013-01-13 17:56:00
10:56 AM,28.0,27.0,96,30.49,2.5,Calm,Calm,-,N/A,,Overcast,0,2013-01-13 18:56:00
11:56 AM,28.0,26.1,92,30.48,2.5,NNW,3.5,-,N/A,,Overcast,340,2013-01-13 19:56:00
12:03 PM,28.4,26.6,93,30.47,3.0,North,4.6,-,N/A,,Overcast,350,2013-01-13 20:03:00
12:56 PM,28.0,26.1,92,30.47,3.0,NE,3.5,-,N/A,,Overcast,40,2013-01-13 20:56:00
1:56 PM,28.0,26.1,92,30.47,4.0,NNE,3.5,-,N/A,,Overcast,30,2013-01-13 21:56:00
2:56 PM,28.0,26.1,92,30.47,4.0,Variable,3.5,-,N/A,,Overcast,0,2013-01-13 22:56:00
3:56 PM,28.0,26.1,92,30.48,4.0,NE,3.5,-,N/A,,Overcast,50,2013-01-13 23:56:00
4:56 PM,28.0,26.1,92,30.47,3.0,Calm,Calm,-,N/A,,Overcast,0,2013-01-14 00:56:00
5:56 PM,28.0,26.1,92,30.48,8.0,Calm,Calm,-,N/A,,Overcast,0,2013-01-14 01:56:00
6:56 PM,28.0,25.0,88,30.50,8.0,Calm,Calm,-,N/A,,Overcast,0,2013-01-14 02:56:00
7:56 PM,28.0,25.0,88,30.50,10.0,ENE,6.9,-,N/A,,Overcast,70,2013-01-14 03:56:00
8:56 PM,27.0,25.0,92,30.50,10.0,South,3.5,-,N/A,,Overcast,180,2013-01-14 04:56:00
9:56 PM,27.0,25.0,92,30.51,9.0,Calm,Calm,-,N/A,,Overcast,0,2013-01-14 05:56:00
10:56 PM,27.0,26.1,96,30.51,9.0,Calm,Calm,-,N/A,,Overcast,0,2013-01-14 06:56:00
11:56 PM,27.0,25.0,92,30.51,9.0,Calm,Calm,-,N/A,,Overcast,0,2013-01-14 07:56:00